Location: Clermont
(50.2608°N, 4.3172°E)
Time: 17:43:24
(UTC+00:00)

Meteor 1-5 Rocket - Pass Details

Date: 13 August 2020
Orbit: 788 x 916 km, 81.2° (Epoch: 25 September)

Event Time Altitude Azimuth Distance (km) Brightness Sun altitude
Exits shadow 21:42:05 28° 184° (S) 1,632 5.2 -19.8°
Maximum altitude 21:45:22 81° 100° (E) 928 4.3 -20.1°
Drops below altitude 10° 21:51:17 10° 14° (NNE) 2,586 7.3 -20.6°
Sets 21:53:44 0° 14° (NNE) 3,516 8.1 -20.8°
